Russell, KS

12:23 AM CST on January 17, 2017 (GMT -0600)
Russell Municipal

Weather History for KRSL - November, 2012

Change the Weather History Date:

Tuesday, November 13, 2012

  Actual Average Record
Temperature  
Mean Temperature 39 °F -  
Max Temperature 57 °F 55 °F 80 °F (1999)
Min Temperature 21 °F 30 °F 4 °F (1986)
Degree Days  
Heating Degree Days 26    
Moisture  
Dew Point 22 °F    
Average Humidity 52    
Maximum Humidity 85    
Minimum Humidity 25    
Precipitation  
Precipitation 0.00 in - - ()
Sea Level Pressure  
Sea Level Pressure 30.32 in    
Wind  
Wind Speed 11 mph (South)    
Max Wind Speed 18 mph    
Max Gust Speed 28 mph    
Visibility 10 miles    
Events      
Averages and records for this station are not official NWS values.
T = Trace of Precipitation, MM = Missing Value Source: NWS Daily Summary

Daily Weather History Graph

Daily Weather History Graph

Search for Another Location

Airport or City:

Trip Planner

Search our weather history database for the weather conditions in past years. The results will help you decide how hot, cold, wet, or windy it might be!

Date:

Astronomy

Nov. 13, 2012 Rise Set
Actual Time 7:16 AM CST 5:22 PM CST
Civil Twilight 6:47 AM CST 5:50 PM CST
Nautical Twilight 6:15 AM CST 6:23 PM CST
Astronomical Twilight 5:44 AM CST 6:54 PM CST
Moon 6:55 AM CST (11/13) 5:17 PM CST (11/13)
Length of Visible Light 11h 03m
Length of Day
10h 06m
Waning Crescent, 0% of the Moon is Illuminated
Nov 13
Waning Crescent
Nov 13
New
Nov 20
First Quarter
Nov 28
Full
Dec 6
Last Quarter

Hourly Weather History & Observations

Time (CST) Temp. Windchill Dew Point Humidity Pressure Visibility Wind Dir Wind Speed Gust Speed Precip Events Conditions
12:53 AM 28.9 °F 19.8 °F 18.0 °F 64% 30.40 in 10.0 mi SW 10.4 mph - N/A   Clear
1:53 AM 26.1 °F 15.6 °F 16.0 °F 66% 30.39 in 10.0 mi SW 11.5 mph - N/A   Clear
2:53 AM 24.8 °F 15.3 °F 15.8 °F 69% 30.34 in 10.0 mi SSW 9.2 mph - N/A   Clear
4:53 AM 23.0 °F 13.1 °F 15.1 °F 72% 30.36 in 10.0 mi SSW 9.2 mph - N/A   Clear
5:53 AM 21.2 °F 12.6 °F 15.8 °F 80% 30.30 in 10.0 mi SSW 6.9 mph - N/A   Clear
6:53 AM 21.9 °F 11.7 °F 18.0 °F 85% 30.38 in 10.0 mi SSW 9.2 mph - N/A   Clear
7:53 AM 26.1 °F 17.6 °F 19.9 °F 78% 30.37 in 10.0 mi South 8.1 mph - N/A   Clear
8:53 AM 34.0 °F 26.6 °F 21.9 °F 61% 30.37 in 10.0 mi South 9.2 mph - N/A   Clear
9:53 AM 42.1 °F 36.6 °F 24.1 °F 49% 30.37 in 10.0 mi South 9.2 mph - N/A   Clear
10:53 AM 50.0 °F - 19.0 °F 29% 30.35 in 10.0 mi SW 16.1 mph - N/A   Clear
11:53 AM 52.0 °F - 21.9 °F 31% 30.32 in 10.0 mi South 15.0 mph - N/A   Clear
12:53 PM 55.9 °F - 21.9 °F 27% 30.28 in 10.0 mi South 16.1 mph 23.0 mph N/A   Clear
1:53 PM 55.0 °F - 21.9 °F 28% 30.25 in 10.0 mi South 16.1 mph 24.2 mph N/A   Clear
2:53 PM 57.0 °F - 21.0 °F 25% 30.24 in 10.0 mi South 18.4 mph 27.6 mph N/A   Clear
3:53 PM 53.1 °F - 21.9 °F 30% 30.25 in 10.0 mi South 17.3 mph - N/A   Clear
4:53 PM 51.1 °F - 25.0 °F 36% 30.26 in 10.0 mi SSE 12.7 mph - N/A   Clear
5:53 PM 46.0 °F 40.2 °F 26.1 °F 46% 30.27 in 10.0 mi SE 12.7 mph - N/A   Clear
6:53 PM 44.1 °F 38.1 °F 27.0 °F 51% 30.29 in 10.0 mi SE 11.5 mph - N/A   Clear
7:53 PM 44.1 °F 37.4 °F 26.1 °F 49% 30.30 in 10.0 mi SSE 13.8 mph - N/A   Clear
8:53 PM 42.1 °F 34.9 °F 25.0 °F 51% 30.30 in 10.0 mi SSE 13.8 mph - N/A   Clear
9:53 PM 39.9 °F 32.5 °F 25.0 °F 55% 30.31 in 10.0 mi South 12.7 mph - N/A   Clear
10:53 PM 39.0 °F 31.8 °F 25.0 °F 57% 30.30 in 10.0 mi South 11.5 mph - N/A   Clear
11:53 PM 37.9 °F 30.9 °F 24.1 °F 57% 30.30 in 10.0 mi South 10.4 mph - N/A   Clear